Year,Month,Day,Hour,Minute,Value (Times are PST for windspeed in km/hr)
2016,08,01,00,00,4.70
2016,08,01,00,01,3.70
2016,08,01,00,02,4.40
2016,08,01,00,03,6.40
2016,08,01,00,04,3.70
2016,08,01,00,05,3.20
2016,08,01,00,06,2.50
2016,08,01,00,07,1.70
2016,08,01,00,08,0.00
2016,08,01,00,09,0.00
2016,08,01,00,10,0.00
2016,08,01,00,11,0.00
2016,08,01,00,12,0.00
2016,08,01,00,13,0.00
2016,08,01,00,14,0.00
2016,08,01,00,15,0.00
2016,08,01,00,16,0.00
2016,08,01,00,17,0.00
2016,08,01,00,18,0.00
2016,08,01,00,19,0.00
2016,08,01,00,20,0.00
2016,08,01,00,21,0.00
2016,08,01,00,22,0.00
2016,08,01,00,23,0.00
2016,08,01,00,24,0.00
2016,08,01,00,25,0.00
2016,08,01,00,26,0.00
2016,08,01,00,27,0.00
2016,08,01,00,28,0.00
2016,08,01,00,29,0.00
2016,08,01,00,30,0.00
2016,08,01,00,31,0.00
2016,08,01,00,32,0.00
2016,08,01,00,33,0.00
2016,08,01,00,34,0.00
2016,08,01,00,35,0.00
2016,08,01,00,36,0.00
2016,08,01,00,37,0.00
2016,08,01,00,38,0.00
2016,08,01,00,39,0.00
2016,08,01,00,40,0.00
2016,08,01,00,41,0.00
2016,08,01,00,42,0.00
2016,08,01,00,43,0.00
2016,08,01,00,44,0.00
2016,08,01,00,45,0.00
2016,08,01,00,46,0.00
2016,08,01,00,47,0.00
2016,08,01,00,48,0.00
2016,08,01,00,49,0.00
2016,08,01,00,50,0.00
2016,08,01,00,51,0.00
2016,08,01,00,52,0.00
2016,08,01,00,53,0.00
2016,08,01,00,54,0.00
2016,08,01,00,55,0.00
2016,08,01,00,56,0.00
2016,08,01,00,57,0.00
2016,08,01,00,58,0.00
2016,08,01,00,59,0.00
2016,08,01,01,00,0.10
2016,08,01,01,01,0.10
2016,08,01,01,02,0.00
2016,08,01,01,03,0.00
2016,08,01,01,04,0.00
2016,08,01,01,05,0.00
2016,08,01,01,06,0.00
2016,08,01,01,07,0.00
2016,08,01,01,08,0.00
2016,08,01,01,09,0.00
2016,08,01,01,10,0.00
2016,08,01,01,11,0.00
2016,08,01,01,12,0.00
2016,08,01,01,13,0.00
2016,08,01,01,14,0.00
2016,08,01,01,15,0.00
2016,08,01,01,16,0.00
2016,08,01,01,17,0.00
2016,08,01,01,18,0.00
2016,08,01,01,19,0.00
2016,08,01,01,20,1.60
2016,08,01,01,21,1.40
2016,08,01,01,22,0.00
2016,08,01,01,23,0.10
2016,08,01,01,24,0.30
2016,08,01,01,25,0.70
2016,08,01,01,26,0.00
2016,08,01,01,27,0.00
2016,08,01,01,28,0.00
2016,08,01,01,29,0.00
2016,08,01,01,30,0.00
2016,08,01,01,31,0.00
2016,08,01,01,32,0.00
2016,08,01,01,33,0.00
2016,08,01,01,34,0.00
2016,08,01,01,35,0.00
2016,08,01,01,36,0.00
2016,08,01,01,37,0.00
2016,08,01,01,38,0.00
2016,08,01,01,39,0.00
2016,08,01,01,40,0.00
2016,08,01,01,41,0.00
2016,08,01,01,42,0.00
2016,08,01,01,43,0.00
2016,08,01,01,44,0.00
2016,08,01,01,45,0.00
2016,08,01,01,46,0.00
2016,08,01,01,47,0.00
2016,08,01,01,48,0.10
2016,08,01,01,49,2.90
2016,08,01,01,50,2.60
2016,08,01,01,51,2.80
2016,08,01,01,52,1.10
2016,08,01,01,53,1.60
2016,08,01,01,54,1.70
2016,08,01,01,55,0.20
2016,08,01,01,56,0.00
2016,08,01,01,57,0.20
2016,08,01,01,58,0.10
2016,08,01,01,59,0.50
2016,08,01,02,00,0.80
2016,08,01,02,01,0.10
2016,08,01,02,02,0.00
2016,08,01,02,03,0.00
2016,08,01,02,04,0.40
2016,08,01,02,05,0.90
2016,08,01,02,06,0.40
2016,08,01,02,07,0.00
2016,08,01,02,08,0.00
2016,08,01,02,09,0.00
2016,08,01,02,10,0.00
2016,08,01,02,11,0.00
2016,08,01,02,12,0.00
2016,08,01,02,13,0.00
2016,08,01,02,14,0.00
2016,08,01,02,15,0.00
2016,08,01,02,16,0.00
2016,08,01,02,17,0.00
2016,08,01,02,18,0.00
2016,08,01,02,19,0.00
2016,08,01,02,20,0.00
2016,08,01,02,21,0.00
2016,08,01,02,22,0.00
2016,08,01,02,23,0.00
2016,08,01,02,24,0.00
2016,08,01,02,25,0.00
2016,08,01,02,26,0.00
2016,08,01,02,27,0.00
2016,08,01,02,28,0.00
2016,08,01,02,29,0.00
2016,08,01,02,30,0.00
2016,08,01,02,31,0.00
2016,08,01,02,32,0.00
2016,08,01,02,33,0.00
2016,08,01,02,34,0.00
2016,08,01,02,35,0.00
2016,08,01,02,36,0.00
2016,08,01,02,37,0.00
2016,08,01,02,38,0.00
2016,08,01,02,39,0.00
2016,08,01,02,40,0.00
2016,08,01,02,41,0.00
2016,08,01,02,42,0.00
2016,08,01,02,43,0.00
2016,08,01,02,44,0.00
2016,08,01,02,45,0.00
2016,08,01,02,46,0.00
2016,08,01,02,47,0.00
2016,08,01,02,48,0.70
2016,08,01,02,49,2.70
2016,08,01,02,50,1.50
2016,08,01,02,51,0.00
2016,08,01,02,52,0.00
2016,08,01,02,53,0.00
2016,08,01,02,54,1.50
2016,08,01,02,55,1.60
2016,08,01,02,56,0.70
2016,08,01,02,57,1.00
2016,08,01,02,58,0.70
2016,08,01,02,59,0.00
2016,08,01,03,00,0.00
2016,08,01,03,01,0.40
2016,08,01,03,02,0.30
2016,08,01,03,03,0.00
2016,08,01,03,04,1.80
2016,08,01,03,05,1.40
2016,08,01,03,06,0.00
2016,08,01,03,07,0.90
2016,08,01,03,08,3.40
2016,08,01,03,09,2.30
2016,08,01,03,10,1.30
2016,08,01,03,11,1.60
2016,08,01,03,12,2.30
2016,08,01,03,13,3.10
2016,08,01,03,14,1.60
2016,08,01,03,15,2.50
2016,08,01,03,16,3.30
2016,08,01,03,17,0.00
2016,08,01,03,18,0.00
2016,08,01,03,19,0.00
2016,08,01,03,20,0.00
2016,08,01,03,21,0.00
2016,08,01,03,22,0.00
2016,08,01,03,23,0.00
2016,08,01,03,24,2.70
2016,08,01,03,25,3.50
2016,08,01,03,26,4.20
2016,08,01,03,27,4.30
2016,08,01,03,28,4.00
2016,08,01,03,29,3.30
2016,08,01,03,30,4.60
2016,08,01,03,31,5.40
2016,08,01,03,32,3.40
2016,08,01,03,33,3.40
2016,08,01,03,34,4.50
2016,08,01,03,35,3.60
2016,08,01,03,36,3.70
2016,08,01,03,37,2.40
2016,08,01,03,38,0.90
2016,08,01,03,39,2.60
2016,08,01,03,40,3.30
2016,08,01,03,41,0.20
2016,08,01,03,42,2.40
2016,08,01,03,43,1.70
2016,08,01,03,44,3.70
2016,08,01,03,45,1.60
2016,08,01,03,46,1.70
2016,08,01,03,47,1.60
2016,08,01,03,48,3.10
2016,08,01,03,49,2.70
2016,08,01,03,50,0.00
2016,08,01,03,51,0.00
2016,08,01,03,52,0.00
2016,08,01,03,53,0.50
2016,08,01,03,54,3.70
2016,08,01,03,55,2.10
2016,08,01,03,56,3.40
2016,08,01,03,57,2.10
2016,08,01,03,58,2.10
2016,08,01,03,59,3.30
2016,08,01,04,00,1.90
2016,08,01,04,01,4.00
2016,08,01,04,02,2.00
2016,08,01,04,03,0.00
2016,08,01,04,04,0.00
2016,08,01,04,05,0.00
2016,08,01,04,06,0.70
2016,08,01,04,07,2.00
2016,08,01,04,08,1.10
2016,08,01,04,09,0.40
2016,08,01,04,10,1.70
2016,08,01,04,11,0.10
2016,08,01,04,12,0.00
2016,08,01,04,13,0.00
2016,08,01,04,14,0.00
2016,08,01,04,15,0.00
2016,08,01,04,16,0.00
2016,08,01,04,17,0.00
2016,08,01,04,18,0.00
2016,08,01,04,19,0.00
2016,08,01,04,20,0.00
2016,08,01,04,21,0.00
2016,08,01,04,22,0.00
2016,08,01,04,23,0.00
2016,08,01,04,24,0.00
2016,08,01,04,25,0.00
2016,08,01,04,26,0.00
2016,08,01,04,27,0.00
2016,08,01,04,28,0.00
2016,08,01,04,29,0.00
2016,08,01,04,30,0.00
2016,08,01,04,31,0.00
2016,08,01,04,32,0.00
2016,08,01,04,33,0.00
2016,08,01,04,34,0.00
2016,08,01,04,35,0.00
2016,08,01,04,36,0.00
2016,08,01,04,37,0.00
2016,08,01,04,38,0.00
2016,08,01,04,39,0.00
2016,08,01,04,40,0.00
2016,08,01,04,41,0.00
2016,08,01,04,42,0.00
2016,08,01,04,43,0.00
2016,08,01,04,44,0.00
2016,08,01,04,45,0.00
2016,08,01,04,46,0.00
2016,08,01,04,47,0.00
2016,08,01,04,48,0.00
2016,08,01,04,49,0.00
2016,08,01,04,50,0.00
2016,08,01,04,51,0.00
2016,08,01,04,52,0.00
2016,08,01,04,53,0.00
2016,08,01,04,54,0.00
2016,08,01,04,55,0.00
2016,08,01,04,56,0.00
2016,08,01,04,57,0.00
2016,08,01,04,58,0.00
2016,08,01,04,59,0.00
2016,08,01,05,00,0.00
2016,08,01,05,01,0.00
2016,08,01,05,02,0.00
2016,08,01,05,03,0.00
2016,08,01,05,04,0.00
2016,08,01,05,05,0.00
2016,08,01,05,06,0.00
2016,08,01,05,07,0.00
2016,08,01,05,08,0.00
2016,08,01,05,09,0.00
2016,08,01,05,10,0.00
2016,08,01,05,11,0.00
2016,08,01,05,12,0.00
2016,08,01,05,13,0.00
2016,08,01,05,14,0.00
2016,08,01,05,15,0.00
2016,08,01,05,16,0.00
2016,08,01,05,17,0.00
2016,08,01,05,18,0.00
2016,08,01,05,19,0.00
2016,08,01,05,20,0.00
2016,08,01,05,21,0.00
2016,08,01,05,22,0.00
2016,08,01,05,23,0.00
2016,08,01,05,24,0.00
2016,08,01,05,25,0.00
2016,08,01,05,26,0.00
2016,08,01,05,27,1.00
2016,08,01,05,28,3.40
2016,08,01,05,29,1.50
2016,08,01,05,30,1.50
2016,08,01,05,31,1.50
2016,08,01,05,32,2.10
2016,08,01,05,33,1.10
2016,08,01,05,34,0.00
2016,08,01,05,35,0.00
2016,08,01,05,36,0.00
2016,08,01,05,37,0.00
2016,08,01,05,38,0.00
2016,08,01,05,39,0.00
2016,08,01,05,40,0.00
2016,08,01,05,41,0.00
2016,08,01,05,42,0.00
2016,08,01,05,43,0.00
2016,08,01,05,44,0.00
2016,08,01,05,45,0.00
2016,08,01,05,46,0.00
2016,08,01,05,47,0.00
2016,08,01,05,48,0.00
2016,08,01,05,49,0.00
2016,08,01,05,50,0.00
2016,08,01,05,51,0.00
2016,08,01,05,52,0.00
2016,08,01,05,53,0.00
2016,08,01,05,54,0.00
2016,08,01,05,55,0.00
2016,08,01,05,56,0.00
2016,08,01,05,57,0.00
2016,08,01,05,58,0.00
2016,08,01,05,59,0.00
2016,08,01,06,00,0.00
2016,08,01,06,01,0.00
2016,08,01,06,02,0.00
2016,08,01,06,03,0.00
2016,08,01,06,04,0.00
2016,08,01,06,05,0.00
2016,08,01,06,06,0.00
2016,08,01,06,07,0.00
2016,08,01,06,08,0.00
2016,08,01,06,09,0.00
2016,08,01,06,10,0.00
2016,08,01,06,11,0.00
2016,08,01,06,12,0.00
2016,08,01,06,13,0.00
2016,08,01,06,14,0.00
2016,08,01,06,15,0.00
2016,08,01,06,16,0.00
2016,08,01,06,17,0.00
2016,08,01,06,18,0.80
2016,08,01,06,19,0.00
2016,08,01,06,20,2.50
2016,08,01,06,21,0.20
2016,08,01,06,22,0.20
2016,08,01,06,23,1.50
2016,08,01,06,24,0.60
2016,08,01,06,25,0.00
2016,08,01,06,26,0.00
2016,08,01,06,27,0.00
2016,08,01,06,28,0.00
2016,08,01,06,29,0.00
2016,08,01,06,30,0.00
2016,08,01,06,31,0.00
2016,08,01,06,32,0.00
2016,08,01,06,33,0.00
2016,08,01,06,34,0.00
2016,08,01,06,35,0.00
2016,08,01,06,36,0.00
2016,08,01,06,37,0.00
2016,08,01,06,38,0.00
2016,08,01,06,39,0.00
2016,08,01,06,40,0.00
2016,08,01,06,41,0.00
2016,08,01,06,42,0.00
2016,08,01,06,43,0.00
2016,08,01,06,44,0.00
2016,08,01,06,45,0.00
2016,08,01,06,46,0.00
2016,08,01,06,47,0.00
2016,08,01,06,48,0.00
2016,08,01,06,49,0.00
2016,08,01,06,50,0.00
2016,08,01,06,51,0.00
2016,08,01,06,52,0.00
2016,08,01,06,53,0.00
2016,08,01,06,54,0.00
2016,08,01,06,55,0.00
2016,08,01,06,56,0.00
2016,08,01,06,57,0.00
2016,08,01,06,58,0.00
2016,08,01,06,59,0.00
2016,08,01,07,00,0.00
2016,08,01,07,01,0.00
2016,08,01,07,02,0.00
2016,08,01,07,03,0.00
2016,08,01,07,04,0.00
2016,08,01,07,05,0.00
2016,08,01,07,06,0.00
2016,08,01,07,07,0.00
2016,08,01,07,08,0.00
2016,08,01,07,09,0.00
2016,08,01,07,10,0.00
2016,08,01,07,11,0.00
2016,08,01,07,12,0.00
2016,08,01,07,13,0.00
2016,08,01,07,14,0.00
2016,08,01,07,15,0.00
2016,08,01,07,16,0.00
2016,08,01,07,17,0.00
2016,08,01,07,18,0.00
2016,08,01,07,19,0.00
2016,08,01,07,20,0.00
2016,08,01,07,21,0.00
2016,08,01,07,22,0.00
2016,08,01,07,23,0.00
2016,08,01,07,24,0.00
2016,08,01,07,25,0.80
2016,08,01,07,26,2.60
2016,08,01,07,27,0.90
2016,08,01,07,28,0.90
2016,08,01,07,29,1.90
2016,08,01,07,30,1.50
2016,08,01,07,31,1.60
2016,08,01,07,32,4.00
2016,08,01,07,33,2.70
2016,08,01,07,34,1.70
2016,08,01,07,35,3.20
2016,08,01,07,36,2.00
2016,08,01,07,37,0.00
2016,08,01,07,38,0.50
2016,08,01,07,39,0.40
2016,08,01,07,40,0.00
2016,08,01,07,41,0.50
2016,08,01,07,42,0.00
2016,08,01,07,43,1.40
2016,08,01,07,44,0.00
2016,08,01,07,45,0.40
2016,08,01,07,46,0.00
2016,08,01,07,47,0.00
2016,08,01,07,48,0.20
2016,08,01,07,49,0.10
2016,08,01,07,50,1.70
2016,08,01,07,51,0.50
2016,08,01,07,52,2.10
2016,08,01,07,53,2.80
2016,08,01,07,54,2.10
2016,08,01,07,55,0.70
2016,08,01,07,56,0.10
2016,08,01,07,57,1.00
2016,08,01,07,58,2.00
2016,08,01,07,59,2.60
2016,08,01,08,00,2.10
2016,08,01,08,01,3.10
2016,08,01,08,02,2.10
2016,08,01,08,03,3.10
2016,08,01,08,04,0.80
2016,08,01,08,05,2.90
2016,08,01,08,06,3.70
2016,08,01,08,07,3.60
2016,08,01,08,08,3.80
2016,08,01,08,09,3.90
2016,08,01,08,10,5.40
2016,08,01,08,11,3.60
2016,08,01,08,12,3.80
2016,08,01,08,13,3.90
2016,08,01,08,14,4.60
2016,08,01,08,15,5.50
2016,08,01,08,16,5.30
2016,08,01,08,17,5.90
2016,08,01,08,18,5.30
2016,08,01,08,19,3.70
2016,08,01,08,20,4.20
2016,08,01,08,21,4.30
2016,08,01,08,22,3.70
2016,08,01,08,23,4.60
2016,08,01,08,24,3.30
2016,08,01,08,25,4.00
2016,08,01,08,26,4.90
2016,08,01,08,27,5.10
2016,08,01,08,28,4.30
2016,08,01,08,29,4.80
2016,08,01,08,30,4.80
2016,08,01,08,31,4.80
2016,08,01,08,32,2.70
2016,08,01,08,33,3.80
2016,08,01,08,34,4.20
2016,08,01,08,35,2.80
2016,08,01,08,36,2.10
2016,08,01,08,37,1.80
2016,08,01,08,38,2.60
2016,08,01,08,39,2.40
2016,08,01,08,40,3.70
2016,08,01,08,41,3.60
2016,08,01,08,42,6.00
2016,08,01,08,43,5.60
2016,08,01,08,44,6.10
2016,08,01,08,45,6.30
2016,08,01,08,46,5.10
2016,08,01,08,47,7.30
2016,08,01,08,48,6.20
2016,08,01,08,49,3.30
2016,08,01,08,50,5.10
2016,08,01,08,51,2.90
2016,08,01,08,52,4.30
2016,08,01,08,53,3.60
2016,08,01,08,54,8.80
2016,08,01,08,55,8.40
2016,08,01,08,56,8.10
2016,08,01,08,57,7.80
2016,08,01,08,58,6.90
2016,08,01,08,59,6.10
2016,08,01,09,00,5.80
2016,08,01,09,01,5.60
2016,08,01,09,02,4.60
2016,08,01,09,03,4.50
2016,08,01,09,04,6.30
2016,08,01,09,05,6.40
2016,08,01,09,06,7.90
2016,08,01,09,07,5.90
2016,08,01,09,08,4.10
2016,08,01,09,09,5.40
2016,08,01,09,10,4.50
2016,08,01,09,11,3.20
2016,08,01,09,12,4.10
2016,08,01,09,13,7.20
2016,08,01,09,14,6.50
2016,08,01,09,15,5.40
2016,08,01,09,16,5.90
2016,08,01,09,17,8.20
2016,08,01,09,18,7.50
2016,08,01,09,19,7.60
2016,08,01,09,20,6.60
2016,08,01,09,21,6.40
2016,08,01,09,22,6.90
2016,08,01,09,23,7.80
2016,08,01,09,24,8.30
2016,08,01,09,25,7.40
2016,08,01,09,26,6.70
2016,08,01,09,27,5.70
2016,08,01,09,28,9.90
2016,08,01,09,29,7.70
2016,08,01,09,30,6.80
2016,08,01,09,31,6.70
2016,08,01,09,32,7.20
2016,08,01,09,33,6.30
2016,08,01,09,34,7.80
2016,08,01,09,35,6.90
2016,08,01,09,36,7.60
2016,08,01,09,37,7.20
2016,08,01,09,38,7.60
2016,08,01,09,39,8.60
2016,08,01,09,40,4.40
2016,08,01,09,41,6.60
2016,08,01,09,42,6.60
2016,08,01,09,43,9.50
2016,08,01,09,44,8.70
2016,08,01,09,45,8.60
2016,08,01,09,46,6.60
2016,08,01,09,47,8.40
2016,08,01,09,48,5.40
2016,08,01,09,49,6.20
2016,08,01,09,50,5.20
2016,08,01,09,51,6.70
2016,08,01,09,52,4.80
2016,08,01,09,53,4.80
2016,08,01,09,54,6.00
2016,08,01,09,55,5.70
2016,08,01,09,56,7.30
2016,08,01,09,57,9.20
2016,08,01,09,58,9.60
2016,08,01,09,59,7.80
2016,08,01,10,00,5.90
2016,08,01,10,01,6.40
2016,08,01,10,02,5.70
2016,08,01,10,03,5.10
2016,08,01,10,04,5.80
2016,08,01,10,05,8.20
2016,08,01,10,06,6.40
2016,08,01,10,07,5.20
2016,08,01,10,08,6.10
2016,08,01,10,09,4.10
2016,08,01,10,10,6.20
2016,08,01,10,11,7.00
2016,08,01,10,12,7.70
2016,08,01,10,13,5.50
2016,08,01,10,14,7.60
2016,08,01,10,15,6.30
2016,08,01,10,16,5.40
2016,08,01,10,17,5.50
2016,08,01,10,18,5.10
2016,08,01,10,19,4.00
2016,08,01,10,20,5.20
2016,08,01,10,21,5.10
2016,08,01,10,22,3.20
2016,08,01,10,23,3.50
2016,08,01,10,24,4.70
2016,08,01,10,25,5.90
2016,08,01,10,26,5.10
2016,08,01,10,27,1.80
2016,08,01,10,28,3.60
2016,08,01,10,29,4.80
2016,08,01,10,30,4.30
2016,08,01,10,31,2.70
2016,08,01,10,32,4.00
2016,08,01,10,33,3.60
2016,08,01,10,34,4.30
2016,08,01,10,35,2.30
2016,08,01,10,36,4.20
2016,08,01,10,37,3.50
2016,08,01,10,38,3.20
2016,08,01,10,39,1.70
2016,08,01,10,40,3.40
2016,08,01,10,41,3.60
2016,08,01,10,42,3.20
2016,08,01,10,43,3.80
2016,08,01,10,44,1.10
2016,08,01,10,45,3.50
2016,08,01,10,46,4.60
2016,08,01,10,47,3.30
2016,08,01,10,48,5.00
2016,08,01,10,49,4.50
2016,08,01,10,50,4.90
2016,08,01,10,51,5.70
2016,08,01,10,52,6.10
2016,08,01,10,53,6.30
2016,08,01,10,54,5.80
2016,08,01,10,55,6.70
2016,08,01,10,56,6.90
2016,08,01,10,57,7.10
2016,08,01,10,58,4.10
2016,08,01,10,59,6.30
2016,08,01,11,00,6.40
2016,08,01,11,01,7.40
2016,08,01,11,02,7.60
2016,08,01,11,03,6.60
2016,08,01,11,04,7.20
2016,08,01,11,05,6.40
2016,08,01,11,06,3.90
2016,08,01,11,07,4.20
2016,08,01,11,08,5.50
2016,08,01,11,09,7.20
2016,08,01,11,10,4.60
2016,08,01,11,11,4.60
2016,08,01,11,12,4.20
2016,08,01,11,13,6.90
2016,08,01,11,14,4.20
2016,08,01,11,15,5.90
2016,08,01,11,16,5.30
2016,08,01,11,17,3.50
2016,08,01,11,18,2.20
2016,08,01,11,19,2.70
2016,08,01,11,20,5.30
2016,08,01,11,21,7.30
2016,08,01,11,22,6.30
2016,08,01,11,23,7.30
2016,08,01,11,24,4.00
2016,08,01,11,25,6.60
2016,08,01,11,26,2.90
2016,08,01,11,27,2.50
2016,08,01,11,28,2.00
2016,08,01,11,29,3.40
2016,08,01,11,30,4.60
2016,08,01,11,31,3.90
2016,08,01,11,32,4.50
2016,08,01,11,33,6.10
2016,08,01,11,34,3.40
2016,08,01,11,35,2.30
2016,08,01,11,36,4.90
2016,08,01,11,37,3.40
2016,08,01,11,38,5.20
2016,08,01,11,39,2.10
2016,08,01,11,40,5.30
2016,08,01,11,41,4.40
2016,08,01,11,42,5.40
2016,08,01,11,43,7.10
2016,08,01,11,44,7.00
2016,08,01,11,45,5.70
2016,08,01,11,46,3.70
2016,08,01,11,47,5.90
2016,08,01,11,48,4.30
2016,08,01,11,49,2.40
2016,08,01,11,50,1.60
2016,08,01,11,51,3.00
2016,08,01,11,52,3.00
2016,08,01,11,53,8.50
2016,08,01,11,54,6.00
2016,08,01,11,55,4.60
2016,08,01,11,56,4.20
2016,08,01,11,57,5.20
2016,08,01,11,58,4.80
2016,08,01,11,59,3.00
2016,08,01,12,00,3.30
2016,08,01,12,01,1.50
2016,08,01,12,02,1.70
2016,08,01,12,03,2.30
2016,08,01,12,04,4.40
2016,08,01,12,05,7.40
2016,08,01,12,06,5.20
2016,08,01,12,07,3.80
2016,08,01,12,08,2.00
2016,08,01,12,09,1.70
2016,08,01,12,10,3.90
2016,08,01,12,11,3.80
2016,08,01,12,12,4.90
2016,08,01,12,13,8.50
2016,08,01,12,14,6.80
2016,08,01,12,15,3.20
2016,08,01,12,16,7.20
2016,08,01,12,17,5.10
2016,08,01,12,18,7.10
2016,08,01,12,19,5.90
2016,08,01,12,20,4.40
2016,08,01,12,21,4.50
2016,08,01,12,22,6.40
2016,08,01,12,23,6.10
2016,08,01,12,24,6.80
2016,08,01,12,25,5.30
2016,08,01,12,26,3.00
2016,08,01,12,27,3.60
2016,08,01,12,28,5.10
2016,08,01,12,29,6.30
2016,08,01,12,30,5.40
2016,08,01,12,31,3.50
2016,08,01,12,32,3.00
2016,08,01,12,33,3.70
2016,08,01,12,34,3.50
2016,08,01,12,35,3.80
2016,08,01,12,36,3.90
2016,08,01,12,37,2.00
2016,08,01,12,38,6.60
2016,08,01,12,39,6.70
2016,08,01,12,40,4.90
2016,08,01,12,41,3.60
2016,08,01,12,42,6.00
2016,08,01,12,43,7.40
2016,08,01,12,44,8.20
2016,08,01,12,45,8.80
2016,08,01,12,46,8.30
2016,08,01,12,47,7.50
2016,08,01,12,48,6.90
2016,08,01,12,49,8.60
2016,08,01,12,50,9.30
2016,08,01,12,51,8.60
2016,08,01,12,52,9.10
2016,08,01,12,53,9.30
2016,08,01,12,54,10.20
2016,08,01,12,55,8.20
2016,08,01,12,56,6.70
2016,08,01,12,57,8.00
2016,08,01,12,58,5.20
2016,08,01,12,59,4.60
2016,08,01,13,00,7.00
2016,08,01,13,01,2.90
2016,08,01,13,02,3.60
2016,08,01,13,03,5.20
2016,08,01,13,04,6.60
2016,08,01,13,05,7.70
2016,08,01,13,06,6.70
2016,08,01,13,07,8.70
2016,08,01,13,08,11.20
2016,08,01,13,09,9.80
2016,08,01,13,10,8.80
2016,08,01,13,11,9.30
2016,08,01,13,12,9.60
2016,08,01,13,13,10.50
2016,08,01,13,14,9.60
2016,08,01,13,15,11.70
2016,08,01,13,16,8.10
2016,08,01,13,17,9.50
2016,08,01,13,18,10.90
2016,08,01,13,19,12.10
2016,08,01,13,20,10.50
2016,08,01,13,21,11.00
2016,08,01,13,22,10.30
2016,08,01,13,23,6.70
2016,08,01,13,24,9.10
2016,08,01,13,25,11.10
2016,08,01,13,26,10.20
2016,08,01,13,27,7.30
2016,08,01,13,28,4.50
2016,08,01,13,29,9.20
2016,08,01,13,30,9.70
2016,08,01,13,31,12.10
2016,08,01,13,32,11.20
2016,08,01,13,33,12.80
2016,08,01,13,34,9.40
2016,08,01,13,35,11.60
2016,08,01,13,36,11.10
2016,08,01,13,37,11.20
2016,08,01,13,38,9.70
2016,08,01,13,39,8.80
2016,08,01,13,40,8.60
2016,08,01,13,41,9.10
2016,08,01,13,42,9.80
2016,08,01,13,43,11.50
2016,08,01,13,44,9.80
2016,08,01,13,45,10.70
2016,08,01,13,46,11.40
2016,08,01,13,47,11.80
2016,08,01,13,48,11.70
2016,08,01,13,49,10.60
2016,08,01,13,50,8.50
2016,08,01,13,51,9.10
2016,08,01,13,52,7.60
2016,08,01,13,53,6.70
2016,08,01,13,54,5.80
2016,08,01,13,55,8.50
2016,08,01,13,56,9.70
2016,08,01,13,57,5.80
2016,08,01,13,58,8.30
2016,08,01,13,59,9.40
2016,08,01,14,00,7.60
2016,08,01,14,01,9.50
2016,08,01,14,02,5.40
2016,08,01,14,03,4.10
2016,08,01,14,04,7.50
2016,08,01,14,05,7.70
2016,08,01,14,06,6.00
2016,08,01,14,07,6.50
2016,08,01,14,08,6.40
2016,08,01,14,09,8.20
2016,08,01,14,10,7.90
2016,08,01,14,11,9.90
2016,08,01,14,12,9.50
2016,08,01,14,13,7.90
2016,08,01,14,14,8.80
2016,08,01,14,15,8.00
2016,08,01,14,16,6.60
2016,08,01,14,17,8.30
2016,08,01,14,18,6.70
2016,08,01,14,19,6.50
2016,08,01,14,20,5.80
2016,08,01,14,21,6.90
2016,08,01,14,22,8.80
2016,08,01,14,23,9.20
2016,08,01,14,24,8.70
2016,08,01,14,25,10.00
2016,08,01,14,26,10.30
2016,08,01,14,27,8.20
2016,08,01,14,28,10.80
2016,08,01,14,29,9.50
2016,08,01,14,30,11.20
2016,08,01,14,31,10.70
2016,08,01,14,32,9.20
2016,08,01,14,33,9.50
2016,08,01,14,34,10.00
2016,08,01,14,35,10.30
2016,08,01,14,36,8.80
2016,08,01,14,37,7.10
2016,08,01,14,38,7.50
2016,08,01,14,39,6.00
2016,08,01,14,40,6.30
2016,08,01,14,41,6.40
2016,08,01,14,42,4.20
2016,08,01,14,43,6.20
2016,08,01,14,44,6.60
2016,08,01,14,45,5.30
2016,08,01,14,46,5.70
2016,08,01,14,47,2.00
2016,08,01,14,48,5.20
2016,08,01,14,49,5.60
2016,08,01,14,50,4.30
2016,08,01,14,51,2.50
2016,08,01,14,52,0.70
2016,08,01,14,53,2.40
2016,08,01,14,54,2.30
2016,08,01,14,55,2.10
2016,08,01,14,56,2.10
2016,08,01,14,57,1.10
2016,08,01,14,58,2.50
2016,08,01,14,59,3.20
2016,08,01,15,00,1.20
2016,08,01,15,01,1.80
2016,08,01,15,02,3.10
2016,08,01,15,03,5.60
2016,08,01,15,04,4.20
2016,08,01,15,05,4.60
2016,08,01,15,06,6.10
2016,08,01,15,07,4.10
2016,08,01,15,08,1.70
2016,08,01,15,09,2.90
2016,08,01,15,10,2.30
2016,08,01,15,11,3.80
2016,08,01,15,12,4.20
2016,08,01,15,13,4.80
2016,08,01,15,14,4.90
2016,08,01,15,15,4.70
2016,08,01,15,16,7.50
2016,08,01,15,17,6.10
2016,08,01,15,18,4.20
2016,08,01,15,19,1.10
2016,08,01,15,20,3.40
2016,08,01,15,21,2.60
2016,08,01,15,22,2.20
2016,08,01,15,23,2.00
2016,08,01,15,24,2.10
2016,08,01,15,25,2.00
2016,08,01,15,26,2.70
2016,08,01,15,27,3.20
2016,08,01,15,28,4.20
2016,08,01,15,29,4.90
2016,08,01,15,30,2.10
2016,08,01,15,31,2.60
2016,08,01,15,32,3.20
2016,08,01,15,33,1.60
2016,08,01,15,34,2.10
2016,08,01,15,35,1.50
2016,08,01,15,36,2.30
2016,08,01,15,37,5.30
2016,08,01,15,38,5.40
2016,08,01,15,39,6.00
2016,08,01,15,40,3.70
2016,08,01,15,41,3.70
2016,08,01,15,42,6.90
2016,08,01,15,43,4.90
2016,08,01,15,44,1.10
2016,08,01,15,45,4.60
2016,08,01,15,46,5.80
2016,08,01,15,47,4.50
2016,08,01,15,48,5.40
2016,08,01,15,49,2.90
2016,08,01,15,50,6.90
2016,08,01,15,51,5.30
2016,08,01,15,52,4.70
2016,08,01,15,53,6.60
2016,08,01,15,54,5.60
2016,08,01,15,55,7.60
2016,08,01,15,56,4.50
2016,08,01,15,57,5.10
2016,08,01,15,58,6.10
2016,08,01,15,59,4.50
2016,08,01,16,00,5.50
2016,08,01,16,01,2.20
2016,08,01,16,02,4.00
2016,08,01,16,03,4.10
2016,08,01,16,04,4.20
2016,08,01,16,05,3.30
2016,08,01,16,06,2.40
2016,08,01,16,07,1.80
2016,08,01,16,08,2.70
2016,08,01,16,09,3.30
2016,08,01,16,10,5.50
2016,08,01,16,11,4.40
2016,08,01,16,12,0.70
2016,08,01,16,13,4.80
2016,08,01,16,14,5.30
2016,08,01,16,15,2.90
2016,08,01,16,16,1.30
2016,08,01,16,17,4.30
2016,08,01,16,18,6.80
2016,08,01,16,19,6.70
2016,08,01,16,20,6.00
2016,08,01,16,21,3.90
2016,08,01,16,22,2.40
2016,08,01,16,23,2.60
2016,08,01,16,24,4.90
2016,08,01,16,25,3.60
2016,08,01,16,26,5.70
2016,08,01,16,27,5.60
2016,08,01,16,28,8.10
2016,08,01,16,29,5.60
2016,08,01,16,30,5.70
2016,08,01,16,31,6.10
2016,08,01,16,32,6.00
2016,08,01,16,33,5.20
2016,08,01,16,34,2.70
2016,08,01,16,35,2.20
2016,08,01,16,36,0.70
2016,08,01,16,37,3.20
2016,08,01,16,38,5.20
2016,08,01,16,39,2.90
2016,08,01,16,40,4.70
2016,08,01,16,41,4.90
2016,08,01,16,42,3.30
2016,08,01,16,43,5.20
2016,08,01,16,44,8.40
2016,08,01,16,45,7.70
2016,08,01,16,46,5.50
2016,08,01,16,47,6.50
2016,08,01,16,48,4.80
2016,08,01,16,49,4.40
2016,08,01,16,50,6.20
2016,08,01,16,51,6.00
2016,08,01,16,52,4.60
2016,08,01,16,53,6.30
2016,08,01,16,54,5.20
2016,08,01,16,55,4.50
2016,08,01,16,56,4.80
2016,08,01,16,57,4.20
2016,08,01,16,58,4.60
2016,08,01,16,59,4.80
2016,08,01,17,00,2.70
2016,08,01,17,01,4.10
2016,08,01,17,02,2.50
2016,08,01,17,03,4.70
2016,08,01,17,04,3.70
2016,08,01,17,05,4.40
2016,08,01,17,06,3.60
2016,08,01,17,07,3.20
2016,08,01,17,08,4.00
2016,08,01,17,09,4.00
2016,08,01,17,10,1.00
2016,08,01,17,11,0.20
2016,08,01,17,12,0.00
2016,08,01,17,13,0.00
2016,08,01,17,14,0.00
2016,08,01,17,15,3.50
2016,08,01,17,16,4.20
2016,08,01,17,17,1.10
2016,08,01,17,18,3.00
2016,08,01,17,19,5.30
2016,08,01,17,20,3.70
2016,08,01,17,21,6.40
2016,08,01,17,22,4.60
2016,08,01,17,23,4.30
2016,08,01,17,24,3.80
2016,08,01,17,25,2.80
2016,08,01,17,26,5.70
2016,08,01,17,27,4.20
2016,08,01,17,28,3.70
2016,08,01,17,29,3.10
2016,08,01,17,30,5.00
2016,08,01,17,31,6.10
2016,08,01,17,32,3.40
2016,08,01,17,33,5.30
2016,08,01,17,34,2.30
2016,08,01,17,35,3.30
2016,08,01,17,36,5.30
2016,08,01,17,37,5.20
2016,08,01,17,38,5.00
2016,08,01,17,39,3.60
2016,08,01,17,40,3.80
2016,08,01,17,41,3.50
2016,08,01,17,42,4.20
2016,08,01,17,43,3.50
2016,08,01,17,44,3.50
2016,08,01,17,45,1.70
2016,08,01,17,46,1.10
2016,08,01,17,47,2.10
2016,08,01,17,48,3.60
2016,08,01,17,49,2.90
2016,08,01,17,50,2.20
2016,08,01,17,51,5.30
2016,08,01,17,52,4.30
2016,08,01,17,53,3.80
2016,08,01,17,54,4.20
2016,08,01,17,55,5.00
2016,08,01,17,56,3.70
2016,08,01,17,57,6.30
2016,08,01,17,58,5.90
2016,08,01,17,59,7.60
2016,08,01,18,00,5.90
2016,08,01,18,01,3.50
2016,08,01,18,02,0.70
2016,08,01,18,03,0.30
2016,08,01,18,04,0.00
2016,08,01,18,05,0.00